Regional Weather Roundup
Issued by NWS

Home | Current Version | Previous Version | Graphics & Text | Print | Product List | Glossary Off
Versions: 1 2 3 4 5 6 7 8 9 10 11 12 13 14 15 16 17 18 19 20 21 22 23 24 25 26 27 28 29 30 31 32 33 34 35 36 37 38 39 40 41 42 43 44 45 46 47 48 49 50

000
ASUS43 KDTX 111410
RWRMI
MICHIGAN HOURLY REGIONAL WEATHER ROUNDUP
NATIONAL WEATHER SERVICE DETROIT/PONTIAC MI
1000 AM EDT FRI JUL 11 2014

NOTE: "FAIR" INDICATES FEW OR NO CLOUDS BELOW 12,000 FEET WITH NO
SIGNIFICANT WEATHER AND/OR OBSTRUCTION TO VISIBILITY.

MIZ047>049-052>055-059>063-066>070-074>076-081>083-111500-
SOUTHEAST LOWER MICHIGAN

CITY           SKY/WX    TMP DP  RH WIND       PRES   REMARKS
ADRIAN         SUNNY     70  61  73 E5        30.25S
ALMA           SUNNY     69  60  72 SW5       30.26R
ANN ARBOR      SUNNY     72  58  61 VRB3      30.24F
BAD AXE        SUNNY     69  59  68 W5        30.26S
DETROIT CITY   SUNNY     73  59  61 CALM      30.24F
DETROIT        MOSUNNY   72  58  61 CALM      30.25S
FLINT          SUNNY     72  57  59 S6        30.25R
GROSSE ILE     SUNNY     72  61  68 CALM      30.23S
HILLSDALE      SUNNY     71  60  67 CALM      30.24S
HOWELL         SUNNY     69  59  70 CALM      30.25R

CITY           SKY/WX    TMP DP  RH WIND       PRES   REMARKS
JACKSON        SUNNY     71  59  65 S3        30.25R
LAMBERTVILLE   SUNNY     72  61  68 E5        30.24S
LANSING        SUNNY     71  58  63 S5        30.25R
LAPEER         NOT AVBL
MASON          SUNNY     69  62  78 CALM      30.25S
MONROE         SUNNY     73  57  56 SE5       30.23R
MT. CLEMENS    MOSUNNY   71  57  63 E3        30.23F
PONTIAC        MOSUNNY   70  56  61 S5        30.24S
PORT HOPE        N/A     68  58  70 CALM      30.23S
PORT HURON     SUNNY     70  59  68 CALM      30.25S
TRI CITIES     SUNNY     70  60  70 SW6       30.25R
YPSILANTI      SUNNY     74  58  57 SE3       30.25S
$$
MIZ043>046-050>051-056>058-064>065-071>073-077>080-111500-
SOUTHWEST LOWER MICHIGAN

CITY           SKY/WX    TMP DP  RH WIND       PRES   REMARKS
BATTLE CREEK   SUNNY     71  58  63 S3        30.25R
BENTON HARBOR  SUNNY     71  60  68 SE7       30.23R
BIG RAPIDS     SUNNY     69  55  62 S6        30.24F
COLDWATER      SUNNY     72  60  67 CALM      30.24R
HOLLAND        SUNNY     72  60  66 SE6       30.24S
GRAND RAPIDS   MOSUNNY   71  58  63 SE3       30.25R
KALAMAZOO      SUNNY     71  59  65 CALM      30.25R
MARSHALL       SUNNY     68  59  73 CALM      30.24R
MUSKEGON       MOSUNNY   72  55  55 S8        30.23S
$$
MIZ016>042-111500-
NORTHERN LOWER MICHIGAN

CITY           SKY/WX    TMP DP  RH WIND       PRES   REMARKS
ALPENA         SUNNY     70  53  54 SW8       30.22S
BEAVER ISLAND  PTSUNNY   69  50  50 SW10G18   30.18S
BELLAIRE       CLOUDY    69  55  61 S6        30.20F
CADILLAC       SUNNY     69  57  65 SW10      30.23S
CHARLEVOIX     MOSUNNY   71  50  46 S9        30.22S
FRANKFORT      PTSUNNY   71  49  46 S9        30.19F
GAYLORD        MOSUNNY   67  53  61 SW9       30.24R
GRAYLING       SUNNY     68  54  59 SW5       30.24S
HARBOR SPRINGS MOSUNNY   68  55  63 CALM      30.19S
HOUGHTON LAKE  SUNNY     69  53  56 SW9       30.25S
MANISTEE       MOSUNNY   63  55  77 CALM      30.22S
OSCODA         SUNNY     71  56  58 S6        30.23S
PELLSTON       PTSUNNY   70  49  47 SW6       30.20S
TRAVERSE CITY  PTSUNNY   72  55  55 S8        30.19S
$$
MIZ007>008-015-111500-
EASTERN UPPER MICHIGAN

CITY           SKY/WX    TMP DP  RH WIND       PRES   REMARKS
KINROSS        MOSUNNY   66  54  63 SW6       30.19S
MACKINAC ISLAN PTSUNNY   66  53  64 S6        30.19S
NEWBERRY       PTSUNNY   65  53  65 S14G21    30.15F
S. S. MARIE    MOSUNNY   64  55  72 SE7       30.18S
$$
MIZ004>006-011>014-085-111500-
CENTRAL UPPER MICHIGAN

CITY           SKY/WX    TMP DP  RH WIND       PRES   REMARKS
MANISTIQUE     PTSUNNY   59  52  78 S9        30.15F
ESCANABA       MOSUNNY   66  55  68 S7        30.13F
MENOMINEE      PTSUNNY   70  57  64 SW9       30.13S
SAWYER-GWINN   SUNNY     63  55  77 SW8       30.11F
$$
MIZ001>003-009>011-084-111500-
WESTERN UPPER MICHIGAN

CITY           SKY/WX    TMP DP  RH WIND       PRES   REMARKS
IRON MOUNTAIN  CLOUDY    66  59  78 SE5       30.11S
HOUGHTON       PTSUNNY   66  60  81 S6        30.03F
COPPER HARBOR    N/A     69  60  73 W8        30.02S
$$

ABBREVIATIONS USED IN REMARKS
   TC - TEMPERATURE IN CELSIUS
  WCI - WIND CHILL INDEX
   HX - HEAT INDEX
  VSB - VISIBILITY




USA.gov is the U.S. government's official web portal to all federal, state and local government web resources and services.